Location: Hoyos del Collado
(40.3594°N, 5.2003°W)
Time: 12:48:13
(UTC+00:00)

Tiangong - Pass Details

Date: 18 April 2024
Orbit: 371 x 375 km, 41.5° (Epoch: 22 May)

Event Time Altitude Azimuth Distance (km) Brightness Sun altitude
Rises 19:37:40 0° 230° (SW) 2,252 2.2 -7.0°
Reaches altitude 10° 19:39:51 10° 220° (SW) 1,397 1.0 -7.4°
Maximum altitude 19:42:43 32° 155° (SSE) 673 -1.3 -7.9°
Enters shadow 19:45:33 10° 89° (E) 1,382 0.1 -8.4°
